Freeland, MI

5:42 PM EST on December 02, 2016 (GMT -0500)
MBS International

Weather History for KMBS - May, 2013

Change the Weather History Date:

Wednesday, May 1, 2013

  Actual Average Record
Temperature  
Mean Temperature 72 °F 52 °F  
Max Temperature 84 °F 63 °F 84 °F (2013)
Min Temperature 59 °F 41 °F 34 °F (2005)
Degree Days  
Heating Degree Days 0    
Month to date heating degree days 0  
Since 1 July heating degree days 6322  
Cooling Degree Days 7    
Month to date cooling degree days 7  
Year to date cooling degree days 8  
Growing Degree Days 22 (Base 50)    
Moisture  
Dew Point 54 °F    
Average Humidity 55    
Maximum Humidity 78    
Minimum Humidity 32    
Precipitation  
Precipitation 0.00 in 0.10 in 0.79 in (2003)
Month to date precipitation 0.00 0.10  
Year to date precipitation 13.18 8.37  
Snow  
Snow 0.00 in - - ()
Month to date snowfall 0.0  
Since 1 July snowfall 43.5  
Snow Depth 0.00 in    
Sea Level Pressure  
Sea Level Pressure 30.14 in    
Wind  
Wind Speed 10 mph (South)    
Max Wind Speed 17 mph    
Max Gust Speed 22 mph    
Visibility 10 miles    
Events      
T = Trace of Precipitation, MM = Missing Value Source: NWS Daily Summary

Daily Weather History Graph

Daily Weather History Graph

Search for Another Location

Airport or City:

Trip Planner

Search our weather history database for the weather conditions in past years. The results will help you decide how hot, cold, wet, or windy it might be!

Date:

Astronomy

May. 01, 2013 Rise Set
Actual Time 6:28 AM EDT 8:38 PM EDT
Civil Twilight 5:57 AM EDT 9:10 PM EDT
Nautical Twilight 5:18 AM EDT 9:49 PM EDT
Astronomical Twilight 4:35 AM EDT 10:32 PM EDT
Moon 1:48 AM EDT (5/1) 12:05 PM EDT (5/1)
Length of Visible Light 15h 13m
Length of Day
14h 10m
Waning Gibbous, 59% of the Moon is Illuminated
May 1
Waning Gibbous
May 2
Last Quarter
May 9
New
May 18
First Quarter
May 25
Full

Hourly Weather History & Observations

Time (EDT) Temp. Heat Index Dew Point Humidity Pressure Visibility Wind Dir Wind Speed Gust Speed Precip Events Conditions
12:53 AM 64.4 °F - 53.6 °F 68% 30.03 in 10.0 mi South 13.8 mph - N/A   Clear
1:53 AM 64.0 °F - 53.1 °F 67% 30.04 in 10.0 mi South 13.8 mph 21.9 mph N/A   Clear
2:53 AM 64.0 °F - 53.1 °F 67% 30.04 in 10.0 mi South 10.4 mph - N/A   Clear
3:53 AM 62.1 °F - 53.1 °F 72% 30.06 in 10.0 mi South 8.1 mph - N/A   Clear
4:53 AM 61.0 °F - 53.1 °F 75% 30.08 in 10.0 mi South 6.9 mph - N/A   Clear
5:53 AM 60.1 °F - 52.0 °F 75% 30.09 in 10.0 mi South 6.9 mph - N/A   Clear
6:53 AM 60.8 °F - 51.8 °F 72% 30.12 in 10.0 mi South 8.1 mph - N/A   Clear
7:53 AM 63.0 °F - 53.1 °F 70% 30.14 in 10.0 mi South 10.4 mph - N/A   Clear
8:53 AM 66.0 °F - 53.1 °F 63% 30.15 in 10.0 mi South 11.5 mph - N/A   Clear
9:53 AM 70.0 °F - 55.0 °F 59% 30.16 in 10.0 mi South 10.4 mph - N/A   Clear
10:53 AM 73.9 °F - 55.9 °F 53% 30.17 in 10.0 mi South 5.8 mph - N/A   Clear
11:53 AM 77.0 °F - 55.9 °F 48% 30.17 in 10.0 mi SSE 11.5 mph - N/A   Clear
12:53 PM 80.1 °F 80.4 °F 57.0 °F 45% 30.16 in 10.0 mi SSW 8.1 mph - N/A   Clear
1:53 PM 82.0 °F 81.6 °F 55.9 °F 41% 30.16 in 10.0 mi SSW 11.5 mph - N/A   Clear
2:53 PM 82.9 °F 82.4 °F 57.0 °F 41% 30.16 in 10.0 mi SSE 13.8 mph 20.7 mph N/A   Partly Cloudy
3:53 PM 84.0 °F 82.6 °F 54.0 °F 35% 30.16 in 10.0 mi South 12.7 mph - N/A   Clear
4:53 PM 84.0 °F - 52.0 °F 33% 30.16 in 10.0 mi South 12.7 mph - N/A   Clear
5:53 PM 82.9 °F - 52.0 °F 34% 30.17 in 10.0 mi South 12.7 mph - N/A   Clear
6:53 PM 82.0 °F 81.2 °F 53.1 °F 37% 30.17 in 10.0 mi South 13.8 mph - N/A   Clear
7:53 PM 79.0 °F - 53.1 °F 40% 30.18 in 10.0 mi South 11.5 mph - N/A   Clear
8:53 PM 75.0 °F - 53.1 °F 46% 30.19 in 10.0 mi SSE 8.1 mph - N/A   Clear
9:53 PM 70.0 °F - 53.1 °F 55% 30.21 in 10.0 mi SSE 6.9 mph - N/A   Clear
10:53 PM 70.0 °F - 52.0 °F 53% 30.21 in 10.0 mi SSE 6.9 mph - N/A   Clear
11:53 PM 66.9 °F - 53.1 °F 61% 30.22 in 10.0 mi SSE 8.1 mph - N/A   Clear